TimeEST,TemperatureF,Dew PointF,Humidity,Sea Level PressureIn,VisibilityMPH,Wind Direction,Wind SpeedMPH,Gust SpeedMPH,PrecipitationIn,Events,Conditions,WindDirDegrees,DateUTC
12:13 AM,26.6,23.0,86,30.10,10.0,Calm,Calm,-,N/A,,Clear,0,2013-03-05 05:13:00
12:33 AM,26.6,23.0,86,30.10,10.0,NE,3.5,-,N/A,,Clear,50,2013-03-05 05:33:00
12:54 AM,28.4,24.8,86,30.10,10.0,NE,4.6,-,N/A,,Clear,40,2013-03-05 05:54:00
1:34 AM,26.6,23.0,86,30.10,10.0,NE,4.6,-,N/A,,Clear,50,2013-03-05 06:34:00
1:54 AM,26.6,23.0,86,30.09,10.0,NE,6.9,-,N/A,,Clear,50,2013-03-05 06:54:00
2:14 AM,26.6,23.0,86,30.09,10.0,ENE,5.8,-,N/A,,Clear,60,2013-03-05 07:14:00
2:34 AM,24.8,23.0,93,30.08,10.0,NE,6.9,-,N/A,,Clear,50,2013-03-05 07:34:00
2:54 AM,24.8,21.2,86,30.07,10.0,ENE,8.1,-,N/A,,Clear,60,2013-03-05 07:54:00
3:14 AM,24.8,21.2,86,30.07,10.0,ENE,6.9,-,N/A,,Clear,70,2013-03-05 08:14:00
4:15 AM,24.8,21.2,86,30.06,10.0,ENE,6.9,-,N/A,,Clear,70,2013-03-05 09:15:00
4:35 AM,24.8,21.2,86,30.06,10.0,ENE,6.9,-,N/A,,Clear,70,2013-03-05 09:35:00
4:55 AM,24.8,21.2,86,30.05,10.0,ENE,8.1,-,N/A,,Clear,70,2013-03-05 09:55:00
5:15 AM,24.8,21.2,86,30.05,10.0,ENE,9.2,-,N/A,,Clear,70,2013-03-05 10:15:00
5:52 AM,24.8,21.2,86,30.05,10.0,East,6.9,-,N/A,,Clear,80,2013-03-05 10:52:00
6:12 AM,24.8,21.2,86,30.05,10.0,ENE,8.1,-,N/A,,Mostly Cloudy,70,2013-03-05 11:12:00
6:32 AM,24.8,21.2,86,30.04,10.0,ENE,8.1,-,N/A,,Scattered Clouds,70,2013-03-05 11:32:00
6:53 AM,24.8,21.2,86,30.04,10.0,East,5.8,-,N/A,,Clear,80,2013-03-05 11:53:00
7:13 AM,24.8,21.2,86,30.04,10.0,East,3.5,-,N/A,,Scattered Clouds,80,2013-03-05 12:13:00
7:53 AM,24.8,23.0,93,30.03,10.0,East,10.4,-,N/A,,Overcast,80,2013-03-05 12:53:00
8:13 AM,26.6,23.0,86,30.03,10.0,East,15.0,18.4,N/A,,Overcast,80,2013-03-05 13:13:00
8:33 AM,26.6,24.8,93,30.04,10.0,East,10.4,17.3,N/A,,Overcast,90,2013-03-05 13:33:00
8:53 AM,26.6,24.8,93,30.04,10.0,East,9.2,-,N/A,,Overcast,90,2013-03-05 13:53:00
9:13 AM,26.6,24.8,93,30.04,10.0,East,9.2,-,N/A,,Overcast,80,2013-03-05 14:13:00
9:34 AM,28.4,24.8,86,30.03,10.0,ENE,9.2,-,N/A,,Overcast,70,2013-03-05 14:34:00
9:54 AM,28.4,24.8,86,30.03,10.0,ENE,10.4,16.1,N/A,,Overcast,70,2013-03-05 14:54:00
10:14 AM,28.4,24.8,86,30.02,10.0,ESE,10.4,17.3,N/A,,Overcast,110,2013-03-05 15:14:00
10:34 AM,28.4,24.8,86,30.02,10.0,East,12.7,18.4,N/A,,Overcast,80,2013-03-05 15:34:00
10:54 AM,28.4,24.8,86,30.00,10.0,East,10.4,-,N/A,,Overcast,100,2013-03-05 15:54:00
11:14 AM,28.4,24.8,86,30.00,10.0,East,12.7,20.7,N/A,,Overcast,80,2013-03-05 16:14:00
11:34 AM,28.4,24.8,86,30.00,10.0,East,15.0,18.4,N/A,,Overcast,90,2013-03-05 16:34:00
11:54 AM,28.4,24.8,86,29.98,10.0,East,15.0,23.0,N/A,,Overcast,80,2013-03-05 16:54:00
12:14 PM,28.4,24.8,86,29.97,10.0,East,11.5,21.9,N/A,,Overcast,80,2013-03-05 17:14:00
12:34 PM,30.2,24.8,80,29.96,10.0,ENE,17.3,23.0,N/A,,Overcast,70,2013-03-05 17:34:00
12:54 PM,30.2,24.8,80,29.95,10.0,East,12.7,21.9,N/A,,Overcast,100,2013-03-05 17:54:00
1:15 PM,30.2,26.6,86,29.94,10.0,East,11.5,18.4,N/A,,Overcast,80,2013-03-05 18:15:00
1:35 PM,30.2,24.8,80,29.92,10.0,ENE,13.8,17.3,N/A,,Overcast,70,2013-03-05 18:35:00
1:55 PM,33.8,26.6,75,29.90,10.0,ENE,12.7,17.3,N/A,,Overcast,70,2013-03-05 18:55:00
2:15 PM,33.8,26.6,75,29.89,10.0,East,13.8,18.4,N/A,,Mostly Cloudy,90,2013-03-05 19:15:00
2:35 PM,33.8,26.6,75,29.88,10.0,East,13.8,19.6,N/A,,Scattered Clouds,80,2013-03-05 19:35:00
2:55 PM,33.8,26.6,75,29.87,10.0,East,10.4,17.3,N/A,,Mostly Cloudy,90,2013-03-05 19:55:00
3:15 PM,35.6,26.6,70,29.86,10.0,ENE,13.8,19.6,N/A,,Scattered Clouds,70,2013-03-05 20:15:00
3:35 PM,33.8,26.6,75,29.85,10.0,ENE,11.5,20.7,N/A,,Scattered Clouds,70,2013-03-05 20:35:00
3:55 PM,33.8,26.6,75,29.84,10.0,East,10.4,19.6,N/A,,Scattered Clouds,80,2013-03-05 20:55:00
4:16 PM,33.8,26.6,75,29.83,10.0,ENE,16.1,23.0,N/A,,Scattered Clouds,70,2013-03-05 21:16:00
4:36 PM,33.8,26.6,75,29.83,10.0,East,10.4,20.7,N/A,,Scattered Clouds,80,2013-03-05 21:36:00
4:51 PM,33.8,26.6,75,29.81,10.0,ENE,17.3,21.9,N/A,,Scattered Clouds,70,2013-03-05 21:51:00
5:11 PM,33.8,26.6,75,29.81,10.0,ENE,12.7,19.6,N/A,,Mostly Cloudy,70,2013-03-05 22:11:00
5:31 PM,33.8,26.6,75,29.81,10.0,East,11.5,21.9,N/A,,Overcast,80,2013-03-05 22:31:00
5:51 PM,32.0,26.6,80,29.80,10.0,ENE,16.1,21.9,N/A,,Overcast,60,2013-03-05 22:51:00
6:11 PM,32.0,26.6,80,29.80,10.0,ENE,15.0,24.2,N/A,,Overcast,60,2013-03-05 23:11:00
6:31 PM,32.0,24.8,75,29.79,10.0,ENE,17.3,26.5,N/A,,Overcast,60,2013-03-05 23:31:00
6:51 PM,32.0,24.8,75,29.80,10.0,ENE,19.6,24.2,N/A,,Overcast,60,2013-03-05 23:51:00
7:11 PM,32.0,24.8,75,29.80,10.0,ENE,17.3,24.2,N/A,,Overcast,60,2013-03-06 00:11:00
7:31 PM,32.0,24.8,75,29.79,10.0,ENE,18.4,25.3,N/A,,Overcast,60,2013-03-06 00:31:00
7:51 PM,32.0,24.8,75,29.78,10.0,ENE,16.1,26.5,N/A,,Overcast,60,2013-03-06 00:51:00
8:12 PM,32.0,24.8,75,29.79,10.0,ENE,18.4,25.3,N/A,,Overcast,60,2013-03-06 01:12:00
8:33 PM,32.0,24.8,75,29.78,10.0,NE,12.7,27.6,N/A,,Overcast,50,2013-03-06 01:33:00
8:53 PM,32.0,24.8,75,29.78,10.0,NE,15.0,24.2,N/A,,Overcast,50,2013-03-06 01:53:00
9:13 PM,33.8,26.6,75,29.78,10.0,NE,13.8,25.3,N/A,,Overcast,50,2013-03-06 02:13:00
9:33 PM,33.8,26.6,75,29.78,10.0,NE,13.8,23.0,N/A,,Overcast,50,2013-03-06 02:33:00
9:54 PM,32.0,26.6,80,29.78,10.0,NNE,9.2,17.3,N/A,,Overcast,30,2013-03-06 02:54:00
10:14 PM,32.0,26.6,80,29.78,10.0,NNE,11.5,19.6,N/A,,Overcast,30,2013-03-06 03:14:00
10:34 PM,32.0,26.6,80,29.78,10.0,NE,10.4,16.1,N/A,,Mostly Cloudy,40,2013-03-06 03:34:00
10:54 PM,32.0,26.6,80,29.78,10.0,NE,11.5,16.1,N/A,,Mostly Cloudy,40,2013-03-06 03:54:00
11:14 PM,32.0,26.6,80,29.78,10.0,NNE,12.7,19.6,N/A,,Scattered Clouds,30,2013-03-06 04:14:00
11:34 PM,30.2,26.6,86,29.78,10.0,NNE,10.4,16.1,N/A,,Scattered Clouds,30,2013-03-06 04:34:00
11:54 PM,30.2,26.6,86,29.78,10.0,NNE,10.4,19.6,N/A,,Clear,20,2013-03-06 04:54:00